ORBCOMM FM113 (41185 NORAD) Tracking and Keplerian Element Data

This shows tracking and keplerian element data for the satellite.

Feedback or suggestion? Click here.




ElementValue
Catalog41185
NameORBCOMM FM113
Epoch Orbit48615
Epoch Day34.58780678
Epoch Year2025
RAAN106.4449
Inclination46.9996
Eccentricity0.0001092
Argument of Perigee216.2635
Mean Anonmoly143.8176
Mean Motion14.57739905
Decay Rate2.346E-05
L11 41185U 15081G 25034.58780678 .00002346 00000+0 54507-3 0 9995
L22 41185 46.9996 106.4449 0001092 216.2635 143.8176 14.57739905486153



Live tracking and technical data element details for ORBCOMM FM113 (NORAD 41185). ORBCOMM FM113 can be tracked NOW for your location showing map with azimuth and elevation plus other details from your city location.







IsCatalogInMostPopularTable: catalog: 41185, numindb: 723
Update: records affected: 1



GetName: 41185 ORBCOMM FM113

Hit Count: updated at: Sat, 17 May 2025 06:27:30 GMT